Location: Kirkcaldy
(50.3333°N, 113.2333°W)
Time: 22:56:05
(UTC+00:00)

AO-91 - Visible Passes

Search period start: 29 November 2023 00:00
Search period end: 09 December 2023 00:00
Orbit: 445 x 755 km, 97.6° (Epoch: 29 November)

Date Brightness Start Highest point End Pass type
(mag) Time Alt. Az. Time Alt. Az. Time Alt. Az.
05 Dec ? 14:21:45 10° ENE 14:22:21 10° NE 14:22:55 10° NE visible
06 Dec ? 14:31:17 10° ENE 14:33:17 12° NE 14:35:17 10° NNE visible
07 Dec ? 14:41:30 10° E 14:44:14 15° NE 14:46:57 10° NNE visible
